When you browse on this site, cookies collect data to enhance your experience and personalize the content and advertising you see.
Visit our Privacy Policy to learn more. By continuing to use the site, you agree to this use of cookies and data.
  • In Latvia
  • List of Countries
  • For 7 days
  • Water Temperature
  • Weather Map
  • Weather Widgets
  • user-avatar
    Login

    Hourly Weather Cleveland

    Today, 22 September, Sunday

    Time Temperature Precipitation Wind Pressure Humidity
    00:00 +25°C° 0 mm 4 mps 737 mmHg 88%
    01:00 +25°C° 2.9 mm 5 mps 737 mmHg 90%
    02:00 +24°C° 2.9 mm 6 mps 737 mmHg 92%
    03:00 +24°C° 2.9 mm 7 mps 737 mmHg 93%
    04:00 +24°C° 7.5 mm 7 mps 737 mmHg 94%
    05:00 +24°C° 7.5 mm 7 mps 737 mmHg 94%
    06:00 +24°C° 0 mm 6 mps 736 mmHg 92%
    07:00 +24°C° 6.3 mm 7 mps 736 mmHg 93%
    08:00 +24°C° 6.3 mm 8 mps 737 mmHg 94%
    09:00 +24°C° 6.3 mm 8 mps 737 mmHg 95%
    10:00 +24°C° 2.3 mm 8 mps 737 mmHg 92%
    11:00 +26°C° 2.3 mm 7 mps 737 mmHg 90%
    12:00 +27°C° 2.3 mm 6 mps 737 mmHg 87%
    13:00 +28°C° 0.4 mm 6 mps 737 mmHg 82%
    14:00 +29°C° 0.4 mm 7 mps 736 mmHg 78%
    15:00 +30°C° 0.4 mm 7 mps 736 mmHg 73%
    16:00 +30°C° 0.6 mm 5 mps 736 mmHg 76%
    17:00 +29°C° 0.6 mm 4 mps 737 mmHg 79%
    18:00 +28°C° 0.6 mm 2 mps 737 mmHg 82%
    19:00 +27°C° 0.2 mm 3 mps 737 mmHg 84%
    20:00 +26°C° 0.2 mm 3 mps 738 mmHg 87%
    21:00 +25°C° 0.2 mm 4 mps 739 mmHg 89%
    22:00 +23°C° 0 mm 4 mps 739 mmHg 89%
    23:00 +22°C° 0 mm 4 mps 739 mmHg 90%

    Tomorrow, 23 September, Monday

    Time Temperature Precipitation Wind Pressure Humidity
    00:00 +21°C° 0 mm 5 mps 739 mmHg 90%
    01:00 +20°C° 0 mm 4 mps 739 mmHg 90%
    02:00 +20°C° 0 mm 4 mps 739 mmHg 91%
    03:00 +19°C° 0 mm 4 mps 739 mmHg 91%
    04:00 +19°C° 0 mm 4 mps 739 mmHg 92%
    05:00 +19°C° 0 mm 3 mps 739 mmHg 92%
    06:00 +18°C° 0 mm 3 mps 739 mmHg 93%
    07:00 +20°C° 0 mm 3 mps 740 mmHg 89%
    08:00 +22°C° 0 mm 3 mps 740 mmHg 86%
    09:00 +25°C° 0 mm 3 mps 740 mmHg 82%
    10:00 +26°C° 0 mm 3 mps 740 mmHg 77%
    11:00 +28°C° 0 mm 3 mps 740 mmHg 73%
    12:00 +30°C° 0 mm 3 mps 740 mmHg 69%
    13:00 +31°C° 0 mm 3 mps 740 mmHg 67%
    14:00 +31°C° 0 mm 3 mps 739 mmHg 65%
    15:00 +33°C° 0 mm 3 mps 739 mmHg 63%
    16:00 +30°C° 0.3 mm 3 mps 738 mmHg 70%
    17:00 +29°C° 0.3 mm 2 mps 738 mmHg 76%
    18:00 +28°C° 0.3 mm 2 mps 738 mmHg 83%
    19:00 +27°C° 0.1 mm 2 mps 738 mmHg 85%
    20:00 +26°C° 0.1 mm 2 mps 738 mmHg 87%
    21:00 +25°C° 0.1 mm 2 mps 738 mmHg 89%
    22:00 +25°C° 0 mm 2 mps 738 mmHg 91%
    23:00 +25°C° 0 mm 2 mps 738 mmHg 92%

    Day after tomorrow, 24 September, Tuesday

    Time Temperature Precipitation Wind Pressure Humidity
    00:00 +25°C° 0 mm 3 mps 737 mmHg 93%
    01:00 +24°C° 0 mm 3 mps 737 mmHg 94%
    02:00 +24°C° 0 mm 3 mps 737 mmHg 95%
    03:00 +24°C° 0 mm 3 mps 737 mmHg 96%
    04:00 +24°C° 0 mm 3 mps 737 mmHg 96%
    05:00 +24°C° 0 mm 3 mps 737 mmHg 96%
    06:00 +22°C° 0 mm 3 mps 737 mmHg 95%
    07:00 +24°C° 0.1 mm 3 mps 737 mmHg 92%
    08:00 +25°C° 0.1 mm 3 mps 737 mmHg 89%
    09:00 +26°C° 0.1 mm 3 mps 737 mmHg 86%
    10:00 +28°C° 1.6 mm 4 mps 737 mmHg 81%
    11:00 +29°C° 1.6 mm 4 mps 736 mmHg 75%
    12:00 +30°C° 1.6 mm 5 mps 736 mmHg 70%
    13:00 +32°C° 0.5 mm 5 mps 736 mmHg 67%
    14:00 +32°C° 0.5 mm 5 mps 735 mmHg 65%
    15:00 +33°C° 0.5 mm 5 mps 734 mmHg 63%
    16:00 +32°C° 0 mm 5 mps 734 mmHg 68%
    17:00 +29°C° 0 mm 5 mps 734 mmHg 73%
    18:00 +28°C° 0 mm 5 mps 733 mmHg 78%
    19:00 +28°C° 0 mm 5 mps 733 mmHg 80%
    20:00 +27°C° 0 mm 5 mps 733 mmHg 82%
    21:00 +27°C° 0 mm 5 mps 733 mmHg 84%
    22:00 +26°C° 0.1 mm 5 mps 733 mmHg 84%
    23:00 +26°C° 0.1 mm 5 mps 733 mmHg 84%

    25 September, Wednesday

    Time Temperature Precipitation Wind Pressure Humidity
    00:00 +26°C° 0.1 mm 5 mps 733 mmHg 83%
    01:00 +25°C° 1.3 mm 4 mps 733 mmHg 86%
    02:00 +25°C° 1.3 mm 4 mps 733 mmHg 89%
    03:00 +24°C° 1.3 mm 3 mps 733 mmHg 92%
    04:00 +23°C° 0.2 mm 4 mps 733 mmHg 91%
    05:00 +23°C° 0.2 mm 4 mps 733 mmHg 90%
    06:00 +23°C° 0.2 mm 5 mps 733 mmHg 89%
    07:00 +25°C° 0 mm 5 mps 734 mmHg 85%
    08:00 +27°C° 0 mm 6 mps 734 mmHg 81%
    09:00 +28°C° 0 mm 6 mps 734 mmHg 77%
    10:00 +29°C° 0 mm 5 mps 734 mmHg 72%
    11:00 +32°C° 0 mm 5 mps 734 mmHg 68%
    12:00 +33°C° 0 mm 4 mps 734 mmHg 63%
    13:00 +34°C° 1 mm 3 mps 734 mmHg 61%
    14:00 +34°C° 1 mm 3 mps 733 mmHg 59%
    15:00 +35°C° 1 mm 2 mps 733 mmHg 57%
    16:00 +33°C° 1.5 mm 3 mps 733 mmHg 65%
    17:00 +30°C° 1.5 mm 3 mps 733 mmHg 73%
    18:00 +28°C° 1.5 mm 4 mps 734 mmHg 81%
    19:00 +27°C° 3.6 mm 4 mps 734 mmHg 84%
    20:00 +25°C° 3.6 mm 4 mps 735 mmHg 88%
    21:00 +24°C° 3.6 mm 3 mps 735 mmHg 92%
    22:00 +22°C° 0 mm 4 mps 735 mmHg 89%
    23:00 +21°C° 0 mm 5 mps 735 mmHg 87%

    26 September, Thursday

    Time Temperature Precipitation Wind Pressure Humidity
    00:00 +20°C° 0 mm 6 mps 735 mmHg 84%
    01:00 +19°C° 0.3 mm 5 mps 736 mmHg 85%
    02:00 +19°C° 0.3 mm 5 mps 736 mmHg 85%
    03:00 +19°C° 0.3 mm 5 mps 736 mmHg 86%
    04:00 +17°C° 0.1 mm 5 mps 736 mmHg 87%
    05:00 +17°C° 0.1 mm 5 mps 736 mmHg 88%
    06:00 +18°C° 0.1 mm 4 mps 736 mmHg 89%
    07:00 +19°C° 0.1 mm 4 mps 736 mmHg 88%
    08:00 +20°C° 0.1 mm 4 mps 736 mmHg 88%
    09:00 +21°C° 0.1 mm 4 mps 736 mmHg 87%
    10:00 +23°C° 0.1 mm 4 mps 736 mmHg 86%
    11:00 +25°C° 0.1 mm 4 mps 735 mmHg 84%
    12:00 +27°C° 0.1 mm 4 mps 735 mmHg 83%
    13:00 +28°C° 0 mm 4 mps 734 mmHg 79%
    14:00 +29°C° 0 mm 4 mps 733 mmHg 76%
    15:00 +32°C° 0 mm 5 mps 733 mmHg 72%
    16:00 +30°C° 0.1 mm 5 mps 732 mmHg 74%
    17:00 +29°C° 0.1 mm 5 mps 732 mmHg 75%
    18:00 +29°C° 0.1 mm 6 mps 732 mmHg 77%
    19:00 +28°C° 0 mm 6 mps 732 mmHg 76%
    20:00 +28°C° 0 mm 7 mps 732 mmHg 76%
    21:00 +27°C° 0 mm 7 mps 732 mmHg 75%
    22:00 +27°C° 0 mm 7 mps 732 mmHg 72%
    23:00 +27°C° 0 mm 8 mps 731 mmHg 69%

    27 September, Friday

    Time Temperature Precipitation Wind Pressure Humidity
    00:00 +27°C° 0 mm 8 mps 731 mmHg 66%
    01:00 +26°C° 0 mm 8 mps 731 mmHg 68%
    02:00 +26°C° 0 mm 8 mps 731 mmHg 70%
    03:00 +26°C° 0 mm 8 mps 731 mmHg 73%
    04:00 +26°C° 0 mm 8 mps 731 mmHg 74%
    05:00 +26°C° 0 mm 8 mps 731 mmHg 75%
    06:00 +26°C° 0 mm 8 mps 731 mmHg 76%
    07:00 +26°C° 0 mm 9 mps 731 mmHg 76%
    08:00 +27°C° 0 mm 9 mps 731 mmHg 76%
    09:00 +27°C° 0 mm 10 mps 731 mmHg 77%
    10:00 +28°C° 0 mm 10 mps 732 mmHg 73%
    11:00 +29°C° 0 mm 10 mps 732 mmHg 70%
    12:00 +31°C° 0 mm 10 mps 732 mmHg 67%
    13:00 +32°C° 0 mm 10 mps 731 mmHg 66%
    14:00 +32°C° 0 mm 9 mps 731 mmHg 65%
    15:00 +32°C° 0 mm 9 mps 730 mmHg 64%
    16:00 +31°C° 1.4 mm 9 mps 730 mmHg 68%
    17:00 +29°C° 1.4 mm 8 mps 730 mmHg 72%
    18:00 +28°C° 1.4 mm 8 mps 729 mmHg 76%
    19:00 +28°C° 0.7 mm 8 mps 730 mmHg 78%
    20:00 +27°C° 0.7 mm 8 mps 731 mmHg 80%
    21:00 +26°C° 0.7 mm 7 mps 731 mmHg 82%
    22:00 +26°C° 0.4 mm 7 mps 731 mmHg 84%
    23:00 +26°C° 0.4 mm 7 mps 732 mmHg 85%
    Show more